SCOUT A DEB, 2226

Orbit data source: Space-Track

SCOUT A DEB, 2226 is space debris in LEO originally from a launch on Wed, 22 Dec 1965 UTC launched from the Air Force Western Test Range (AFWTR). Debris objects in space refer to the collection of defunct objects orbiting the Earth. Examples of debris include non-operational satellites, rocket bodies, and fragments generated from explosions, collisions, or faulty payload assembly.

Loading next visibility...
Identifier
2226, 1965-109D
Orbit
LEO
Country
Flag of USUS
Related business
Manufacturer
Unknown
Mission
Spacecraft
Bus & Motor
Unknown
Mass
Unknown
Launch date (UTC)
1965-12-22 (60 years ago)
Launch vehicle
Unknown
Launch site
Air Force Western Test Range (AFWTR)
Object type
Payload
Rocket body
Debris
Shape & HBR
Unknown
Radar Cross Section
Small (<0.1 m²)

Expand to show TLE details & history
Last TLE update: 3 days ago

TLE from 3 days ago
0 SCOUT A DEB
1 02226U 65109D   25258.67282509  .00000109  00000-0  11938-3 0  9999
2 02226  89.0692 332.9945 0249620 118.0235 244.6409 13.51176064916612
Epoch: 2025-09-15T16:08Z
TLE epoch observation values (Epoch: 2025-09-15T16:08:52.087Z)
Latitude
-0.0001°
Longitude
95.90336°
Altitude
1,154.243 km
Speed
7.235 km/s
True Right ascension
22h 11m 58s
True Declination
0° 00' 00"
Sunlit
Object was in full shadow at epoch
Visualization orbit readout
Latitude
Unknown
Longitude
Unknown
Altitude
Unknown
Speed
Unknown
Apparent Right ascension
Unknown
Apparent Declination
Unknown
Sunlit
N/A
Visualization observer readout
Local Sidereal Time
10:40:49
Azimuth
Unknown
Elevation
Unknown
Doppler factor
Unknown
Orbital elements
Apogee altitude
1,250.777 km
Perigee altitude
879.187 km
Semi-major axis
7,443.119 km
Eccentricity
0.02496
Inclination
89.0692°
RAAN
332.9945°
Arg. of periapsis
118.0235°
True anomaly
242.09104°
Mean anomaly
244.6409°
Eccentric anomaly
243.36248°
Mean motion
3.37995 °/min
Orbital period
106.51 mins
BSTAR
0.00011938
Loading maneuver chart data...
Computing Atmospheric mass density...
Loading historical data...
Loading historical data...
Loading historical data...
Loading historical data...
Loading historical data...
Loading historical data...
Loading historical data...

Documentation

Showing up to 5 results
|